[[{"header":{"parameterUnit":"m.s-1","parameterCategory":1,"la1":30.2991,"la2":30.254,"lo1":-89.0895,"lo2":-89.0444,"dx":0.0017,"dy":0.0017,"nx":28,"ny":28,"refTime":"2022-11-16T09:00:00:Z","depth":0,"parameterNumber":2,"parameterNumberName":"U-component_of_WINDS"},"data":[0,0,0,0,0,0,0,0,0,0,0,0,0,0,0,0,0,0,0,0,0,0,0,0,0,0,0,0,0,0,0,0,0,0,0,0,0,0,0,0,0,0,0,0,0,0,0,0,0,0,0,0,0,0,0,0,0,0,0.4722,0.4722,0,0.4686,0.4685,0.4685,0.4692,0.4692,0.4693,0.4693,0.4653,0.4651,0.4649,0,0,0,0,0,0,0,0,0,0,0,0,0,0.4796,0.4794,0.4722,0.4722,0.4721,0.4686,0.4685,0.4685,0.4691,0.4692,0.4693,0.4694,0.4653,0.4651,0.4649,0,0,0,0,0,0,0,0,0,0,0,0,0,0.4762,0.4794,0.4722,0.472,0.472,0.4686,0.4685,0.4684,0.4691,0.4692,0.4693,0.4694,0.4654,0.4652,0.4649,0.4613,0,0,0.4641,0.464,0,0,0,0,0,0,0,0,0.4764,0.4759,0.4721,0.472,0.472,0.4694,0.4696,0.4661,0.4691,0.4702,0.4693,0.4695,0.4666,0.4662,0.4653,0.4611,0.461,0.4641,0.4639,0.4638,0.4638,0,0,0,0,0,0,0,0.4766,0.4761,0.4708,0.4721,0.472,0.4721,0.4717,0.4689,0.4678,0.4701,0.4702,0.4697,0.4665,0.4655,0.4652,0.4609,0.4641,0.4639,0.4637,0.4636,0.4538,0.4536,0,0,0,0,0,0,0.4769,0.4763,0.4709,0.4706,0.4745,0.4719,0.4714,0.4701,0.4679,0.4676,0.4696,0.4698,0.4659,0.4655,0.4651,0.4608,0.4638,0.4636,0.4635,0.4539,0.4537,0.4536,0,0,0,0,0,0,0.4771,0.4765,0.471,0.4735,0.4728,0.4716,0.4701,0.47,0.469,0.4675,0.4673,0.4688,0.466,0.4654,0.4623,0.4606,0.4635,0.4633,0.454,0.4538,0.4537,0.4521,0,0,0,0,0,0,0.4773,0.4765,0.4752,0.4734,0.4727,0.4684,0.47,0.4699,0.4686,0.4687,0.4667,0.4665,0.466,0.4627,0.4621,0.4603,0.4631,0.4541,0.4539,0.4537,0.4523,0.4519,0.4516,0,0,0,0,0,0.4776,0.4748,0.4751,0.4744,0.471,0.4683,0.4678,0.4674,0.4685,0.4671,0.4662,0.4665,0.461,0.4624,0.4616,0.4598,0.4542,0.454,0.4537,0.4525,0.452,0.4516,0,0,0,0,0,0,0.4762,0.4745,0.4749,0.4715,0.47,0.4684,0.4666,0.4669,0.465,0.4652,0.4648,0.4643,0.4611,0.4602,0.4618,0.4563,0.4577,0.4573,0.457,0.4565,0.4562,0.4564,0.4628,0,0,0,0,0,0.4755,0.4735,0.4722,0.4693,0.4686,0.4677,0.4665,0.4664,0.4648,0.4642,0.463,0.4614,0.4593,0.4579,0.4559,0.4523,0.4518,0.4507,0.4503,0.45,0.4496,0.4477,0.4471,0.4528,0.4528,0.4528,0,0,0.474,0.4729,0.4716,0.469,0.4679,0.4658,0.4672,0.4649,0.4633,0.4638,0.4608,0.4599,0.4581,0.4547,0.4532,0.4538,0.448,0.4497,0.4495,0.4492,0.4474,0.4468,0.4464,0.4526,0.4527,0.4527,0,0,0.4703,0.4692,0.4667,0.4656,0.464,0.4634,0.4629,0.4612,0.4607,0.4577,0.4581,0.4562,0.4526,0.4513,0.4501,0.4461,0.4464,0.4455,0.4435,0.4416,0.4412,0.4408,0.4393,0.4388,0.4451,0.4451,0.4451,0,0.4686,0.4655,0.4654,0.4631,0.4619,0.4625,0.4599,0.4588,0.4565,0.4557,0.4565,0.452,0.4508,0.4472,0.4463,0.4453,0.4446,0.4456,0.4413,0.4409,0.4405,0.4391,0.4385,0.445,0.445,0.445,0.445,0,0.4635,0.4614,0.4596,0.4575,0.4562,0.4537,0.4532,0.4518,0.4519,0.4513,0.4483,0.4469,0.4447,0.4438,0.4438,0.4402,0.4407,0.4414,0.4428,0.4398,0.4385,0.438,0.4449,0.4449,0.4449,0.445,0,0,0.4585,0.4566,0.4559,0.455,0.4533,0.4516,0.4493,0.4472,0.446,0.4445,0.4425,0.4395,0.4402,0.4389,0.4388,0.4371,0.434,0.4381,0.438,0.4373,0.43,0.4294,0.4288,0.4343,0.4342,0.4341,0.4301,0,0.4545,0.4505,0.4504,0.4466,0.4446,0.4453,0.4432,0.4419,0.4413,0.4396,0.4389,0.4368,0.4379,0.4372,0.4356,0.4348,0.4326,0.4351,0.4323,0.4322,0.4326,0.4281,0.4274,0.4237,0.4296,0.4295,0.4295,0,0.4493,0.4477,0.4438,0.4425,0.4417,0.4398,0.438,0.4363,0.4349,0.4346,0.4333,0.4334,0.431,0.4326,0.4292,0.431,0.4299,0.4293,0.4292,0.4288,0.4306,0.4275,0.4225,0.4219,0.4287,0.4287,0.4288,0,0.446,0.4429,0.4402,0.4394,0.4378,0.4365,0.4358,0.4345,0.4333,0.4317,0.4309,0.429,0.4279,0.4264,0.426,0.4273,0.4227,0.4242,0.4223,0.4223,0.4211,0.4212,0.4158,0.4206,0.4206,0.4206,0.4207,0,0.4414,0.439,0.4387,0.437,0.4343,0.4342,0.4315,0.4309,0.4298,0.4279,0.4284,0.4266,0.4263,0.4245,0.4242,0.4214,0.4209,0.4206,0.4205,0.4205,0.4205,0.4196,0.4198,0.4205,0.4205,0.4206,0.4206,0,0.4372,0.4369,0.4339,0.4328,0.4324,0.4305,0.4295,0.4278,0.4274,0.4251,0.4245,0.4238,0.4217,0.4213,0.4188,0.4186,0.4153,0.4155,0.4158,0.4158,0.4138,0.414,0.4076,0.4067,0.4122,0.4121,0.4121,0,0.4342,0.4324,0.4311,0.43,0.4292,0.4273,0.4262,0.4261,0.4249,0.4233,0.4218,0.4198,0.4182,0.4148,0.414,0.4121,0.4122,0.4101,0.4119,0.412,0.4121,0.4122,0.412,0.4097,0.4097,0.4096,0.4096,0,0.429,0.429,0.4274,0.4257,0.4244,0.423,0.4217,0.4208,0.4206,0.4191,0.4171,0.4158,0.4134,0.4113,0.4095,0.4087,0.409,0.4091,0.4085,0.4084,0.4086,0.4084,0.4147,0.4092,0.4092,0.4092,0.4093,0.4093,0.4253,0.4237,0.4226,0.4208,0.4198,0.4187,0.4171,0.4166,0.4149,0.413,0.4131,0.4108,0.4095,0.4071,0.4062,0.4044,0.405,0.4042,0.404,0.4038,0.4036,0.409,0.4041,0.4041,0.4041,0.4041,0.4041,0,0.42,0.4194,0.4178,0.416,0.4146,0.4153,0.414,0.4127,0.4108,0.4096,0.4081,0.4057,0.4038,0.403,0.4011,0.3999,0.4,0.3994,0.3994,0.3992,0.4031,0.4038,0.3993,0.3993,0.3993,0.3993,0.3993,0.3993,0.4171,0.4145,0.4144,0.4113,0.4107,0.4086,0.4078,0.4067,0.4058,0.4032,0.4017,0.4012,0.4002,0.3983,0.3966,0.3964,0.3956,0.3949,0.3948,0.3984,0.3989,0.3994,0.4,0.3948,0.3948,0.391,0.391,0.3909]},{"header":{"parameterUnit":"m.s-1","parameterCategory":1,"la1":30.2991,"la2":30.254,"lo1":-89.0895,"lo2":-89.0444,"dx":0.0017,"dy":0.0017,"nx":28,"ny":28,"refTime":"2022-11-16T09:00:00:Z","depth":0,"parameterNumber":3,"parameterNumberName":"V-component_of_WINDS"},"data":[0,0,0,0,0,0,0,0,0,0,0,0,0,0,0,0,0,0,0,0,0,0,0,0,0,0,0,0,0,0,0,0,0,0,0,0,0,0,0,0,0,0,0,0,0,0,0,0,0,0,0,0,0,0,0,0,0,0,-7.5443,-7.5444,0,-7.5583,-7.5584,-7.5586,-7.5504,-7.55,-7.5497,-7.5493,-7.563,-7.5637,-7.5645,0,0,0,0,0,0,0,0,0,0,0,0,0,-7.5098,-7.5104,-7.5442,-7.5444,-7.5446,-7.5583,-7.5585,-7.5586,-7.5505,-7.55,-7.5495,-7.5491,-7.5628,-7.5636,-7.5645,0,0,0,0,0,0,0,0,0,0,0,0,0,-7.5243,-7.5107,-7.5442,-7.5422,-7.5422,-7.5582,-7.5585,-7.5587,-7.5506,-7.55,-7.5494,-7.5489,-7.5625,-7.5636,-7.5646,-7.5833,0,0,-7.568,-7.5685,0,0,0,0,0,0,0,0,-7.5235,-7.5256,-7.5423,-7.5424,-7.5424,-7.552,-7.5513,-7.5669,-7.5508,-7.5474,-7.5493,-7.5486,-7.5598,-7.5611,-7.565,-7.5839,-7.5845,-7.5681,-7.5688,-7.5692,-7.5696,0,0,0,0,0,0,0,-7.5225,-7.525,-7.5498,-7.5426,-7.5426,-7.5404,-7.5418,-7.5542,-7.5567,-7.5476,-7.5471,-7.5489,-7.5597,-7.564,-7.5652,-7.5847,-7.5681,-7.569,-7.5697,-7.5702,-7.6195,-7.6201,0,0,0,0,0,0,-7.5217,-7.5242,-7.5493,-7.5502,-7.5313,-7.5415,-7.5431,-7.5495,-7.5566,-7.5571,-7.5494,-7.5485,-7.5624,-7.564,-7.5657,-7.588,-7.5692,-7.5703,-7.5709,-7.6189,-7.6197,-7.6204,0,0,0,0,0,0,-7.521,-7.5241,-7.5488,-7.5371,-7.54,-7.5427,-7.55,-7.5501,-7.5544,-7.5579,-7.5582,-7.5533,-7.562,-7.5642,-7.579,-7.5883,-7.5708,-7.5718,-7.6181,-7.6191,-7.62,-7.6326,0,0,0,0,0,0,-7.5201,-7.5239,-7.5311,-7.5373,-7.5407,-7.5621,-7.5506,-7.5508,-7.5564,-7.5553,-7.5617,-7.5622,-7.5617,-7.5774,-7.5801,-7.5895,-7.5726,-7.6173,-7.6186,-7.6197,-7.6314,-7.6339,-7.6361,0,0,0,0,0,-7.5189,-7.534,-7.5316,-7.5346,-7.5499,-7.5626,-7.5645,-7.5638,-7.5571,-7.5644,-7.5666,-7.562,-7.5869,-7.579,-7.582,-7.5918,-7.6167,-7.6182,-7.6196,-7.6303,-7.6334,-7.636,0,0,0,0,0,0,-7.5287,-7.5348,-7.5321,-7.5497,-7.5558,-7.5612,-7.5703,-7.5671,-7.575,-7.5736,-7.5722,-7.5737,-7.5892,-7.592,-7.5831,-7.6102,-7.6007,-7.6028,-7.6078,-7.6108,-7.6131,-7.6121,-7.5735,0,0,0,0,0,-7.5329,-7.543,-7.5477,-7.5627,-7.5659,-7.5677,-7.5732,-7.5721,-7.5782,-7.5806,-7.584,-7.5899,-7.599,-7.605,-7.6136,-7.6318,-7.6329,-7.64,-7.6423,-7.6442,-7.6461,-7.6558,-7.6589,-7.6252,-7.6252,-7.6251,0,0,-7.5417,-7.5463,-7.5527,-7.5648,-7.5694,-7.5796,-7.5698,-7.5811,-7.5886,-7.5823,-7.5966,-7.5992,-7.6057,-7.6222,-7.6297,-7.625,-7.6557,-7.6461,-7.6476,-7.6484,-7.6576,-7.6608,-7.6636,-7.6262,-7.626,-7.6258,0,0,-7.563,-7.5675,-7.5806,-7.5854,-7.5924,-7.5935,-7.5966,-7.6026,-7.6042,-7.6186,-7.614,-7.6228,-7.6386,-7.6434,-7.6479,-7.671,-7.667,-7.6738,-7.6861,-7.6955,-7.6982,-7.7005,-7.7087,-7.7116,-7.6757,-7.6757,-7.6757,0,-7.5729,-7.5885,-7.5876,-7.5993,-7.6047,-7.5996,-7.6127,-7.6173,-7.6268,-7.6305,-7.6252,-7.6449,-7.6489,-7.6665,-7.6722,-7.676,-7.6794,-7.6731,-7.6979,-7.7002,-7.7024,-7.7102,-7.7133,-7.6765,-7.6764,-7.6763,-7.6762,0,-7.6003,-7.6111,-7.6208,-7.6303,-7.6367,-7.6491,-7.6499,-7.6565,-7.6549,-7.6564,-7.671,-7.6757,-7.6851,-7.6892,-7.6876,-7.7066,-7.7034,-7.6981,-7.6885,-7.7064,-7.7137,-7.7167,-7.6776,-7.6773,-7.6771,-7.6769,0,0,-7.6281,-7.6371,-7.6406,-7.6449,-7.6523,-7.6605,-7.6725,-7.682,-7.6876,-7.6943,-7.7042,-7.7177,-7.7128,-7.7179,-7.7168,-7.7251,-7.743,-7.7187,-7.7188,-7.723,-7.764,-7.768,-7.7715,-7.7404,-7.741,-7.7414,-7.7635,0,-7.6499,-7.6711,-7.6707,-7.6903,-7.7002,-7.6955,-7.7059,-7.7115,-7.7133,-7.7217,-7.7235,-7.7331,-7.7259,-7.729,-7.737,-7.7392,-7.7512,-7.7376,-7.7494,-7.7499,-7.748,-7.7753,-7.7796,-7.8002,-7.7663,-7.7668,-7.7672,0,-7.678,-7.6859,-7.7066,-7.7126,-7.7167,-7.7261,-7.7347,-7.7429,-7.749,-7.7497,-7.7555,-7.7531,-7.765,-7.7552,-7.7715,-7.7622,-7.767,-7.7688,-7.7696,-7.7706,-7.7596,-7.777,-7.8067,-7.8098,-7.7716,-7.7713,-7.7709,0,-7.6962,-7.7119,-7.7263,-7.7301,-7.7374,-7.7441,-7.7474,-7.753,-7.7587,-7.7661,-7.7698,-7.7784,-7.7831,-7.7898,-7.7897,-7.7826,-7.8062,-7.7964,-7.8069,-7.807,-7.8121,-7.8118,-7.8429,-7.8153,-7.8153,-7.8152,-7.8151,0,-7.7205,-7.7333,-7.7346,-7.7434,-7.7576,-7.7569,-7.7708,-7.7735,-7.7785,-7.7876,-7.784,-7.7925,-7.792,-7.8006,-7.8005,-7.814,-7.8162,-7.8169,-7.8167,-7.8172,-7.8172,-7.8203,-7.8189,-7.816,-7.8159,-7.8157,-7.8156,0,-7.7432,-7.7446,-7.7599,-7.7657,-7.7674,-7.7776,-7.7824,-7.7907,-7.7921,-7.8037,-7.8063,-7.8085,-7.8185,-7.8191,-7.8305,-7.8304,-7.8468,-7.8451,-7.8449,-7.8445,-7.8551,-7.854,-7.8893,-7.8938,-7.8633,-7.8636,-7.8639,0,-7.7586,-7.7684,-7.7752,-7.7812,-7.7849,-7.7946,-7.8004,-7.8,-7.8062,-7.814,-7.8213,-7.831,-7.8387,-7.8547,-7.8572,-7.8659,-7.8643,-7.876,-7.8655,-7.8657,-7.8644,-7.8638,-7.8647,-7.8781,-7.8784,-7.8787,-7.8789,0,-7.7857,-7.7859,-7.7946,-7.8036,-7.8107,-7.8177,-7.8242,-7.8292,-7.8296,-7.8367,-7.8469,-7.853,-7.8647,-7.8743,-7.8828,-7.8859,-7.8825,-7.8822,-7.8851,-7.8857,-7.8851,-7.8855,-7.8504,-7.8814,-7.8811,-7.8809,-7.8808,-7.8807,-7.8052,-7.8137,-7.8198,-7.8296,-7.8345,-7.8406,-7.8487,-7.8513,-7.8599,-7.8696,-7.8688,-7.8801,-7.8858,-7.8969,-7.9008,-7.9094,-7.9054,-7.9096,-7.9107,-7.9117,-7.9128,-7.8838,-7.911,-7.9109,-7.9108,-7.9108,-7.9107,0,-7.8321,-7.8359,-7.8449,-7.8542,-7.8619,-7.8582,-7.8651,-7.8717,-7.8818,-7.8876,-7.8953,-7.9071,-7.9163,-7.9195,-7.9285,-7.9348,-7.9335,-7.9372,-7.9367,-7.9374,-7.9159,-7.9125,-7.9381,-7.9381,-7.9381,-7.9381,-7.9381,-7.9381,-7.847,-7.8612,-7.8621,-7.8785,-7.8821,-7.8934,-7.8977,-7.9033,-7.9079,-7.9212,-7.929,-7.9311,-7.9358,-7.9451,-7.9533,-7.954,-7.9574,-7.9618,-7.9619,-7.9417,-7.9389,-7.9363,-7.9331,-7.9626,-7.9626,-7.9826,-7.9828,-7.9829]}]]